Hourly Data Report for September 15, 2016

All times are specified in Local Standard Time (LST). Add 1 hour to adjust for Daylight Saving Time where and when it is observed.

CHARLOTTETOWN A
PRINCE EDWARD ISLAND

46°17'21.000" N
63°07'09.000" W
48.50 m
8300301
71706
YYG

Download Data

Hourly Data (September 2016)
Hourly Data Report for September 15, 2016
Temp Definition
°C
Dew Point Temp Definition
°C
Rel Hum Definition
%
Wind Dir Definition
10's deg

Wind Spd Definition
km/h
Visibility Definition
km
Stn Press Definition
kPa
Hmdx Definition


Wind Chill Definition


Weather Definition


TIME
00:00 Legend Double Dagger 11.9 8.8 81 35 21 24.1 100.88     LegendNANA
01:00 Legend Double Dagger 11.1 9.2 88 35 17 24.1 100.95     LegendNANA
02:00 Legend Double Dagger 11.1 8.4 83 34 21 24.1 100.98     Cloudy
03:00 Legend Double Dagger 11.2 7.5 78 35 24 24.1 101.02     LegendNANA
04:00 Legend Double Dagger 11.6 7.9 78 34 17 24.1 101.09     LegendNANA
05:00 Legend Double Dagger 11.3 6.7 73 34 17 24.1 101.18     Cloudy
06:00 Legend Double Dagger 11.3 6.3 71 34 17 24.1 101.24     LegendNANA
07:00 Legend Double Dagger 11.1 5.9 70 34 17 24.1 101.28     LegendNANA
08:00 Legend Double Dagger 12.3 6.8 69 34 17 24.1 101.34     Mostly Cloudy
09:00 Legend Double Dagger 13.2 7.3 67 36 22 24.1 101.37     LegendNANA
10:00 Legend Double Dagger 13.6 7.6 67 35 23 24.1 101.43     LegendNANA
11:00 Legend Double Dagger 13.3 8.0 70 34 21 24.1 101.46     Mostly Cloudy
12:00 Legend Double Dagger 14.0 7.6 65 34 23 24.1 101.55     LegendNANA
13:00 Legend Double Dagger 14.7 8.0 64 36 14 24.1 101.55     LegendNANA
14:00 Legend Double Dagger 14.9 7.5 61 36 18 24.1 101.58     Mostly Cloudy
15:00 Legend Double Dagger 14.0 6.7 61 35 20 24.1 101.57     LegendNANA
16:00 Legend Double Dagger 13.6 6.5 62 36 17 24.1 101.58     LegendNANA
17:00 Legend Double Dagger 13.4 6.8 64 34 11 24.1 101.62     Mainly Clear
18:00 Legend Double Dagger 12.0 6.1 67 33 6 24.1 101.67     LegendNANA
19:00 Legend Double Dagger 10.2 6.6 78 30 6 24.1 101.74     LegendNANA
20:00 Legend Double Dagger 9.1 6.0 81 30 7 24.1 101.78     Clear
21:00 Legend Double Dagger 9.0 5.8 80 28 8 24.1 101.81     LegendNANA
22:00 Legend Double Dagger 8.7 5.8 82 26 8 24.1 101.85     LegendNANA
23:00 Legend Double Dagger 5.8 4.6 92 36 2 24.1 101.86     Clear

Notes on Data Quality.

Legend

  • E = Estimated
  • M = Missing
  • NA = Not Available
  • ‡ = Partner data that is not subject to review by the National Climate Archives
Date modified: